Weather reports worldwide

Advertisment
Pisa/S. Giusto, Italy (16158): temperature & dewpoint: 11.06.2019 20:00:00 - 17.06.2019 20:00:00 (CEST)Pisa/S. Giusto, Italy (16158): wind speed: 11.06.2019 20:00:00 - 17.06.2019 20:00:00 (CEST)Pisa/S. Giusto, Italy (16158): wind direction: 11.06.2019 20:00:00 - 17.06.2019 20:00:00 (CEST)Pisa/S. Giusto, Italy (16158): reduced air pressure: 11.06.2019 20:00:00 - 17.06.2019 20:00:00 (CEST)Pisa/S. Giusto, Italy (16158): visibility: 11.06.2019 20:00:00 - 17.06.2019 20:00:00 (CEST)Pisa/S. Giusto, Italy (16158): sunshine duration: 11.06.2019 20:00:00 - 17.06.2019 20:00:00 (CEST)
Date & Time tt [°C] td [°C] ff [km/h] ff [kn] dd ppp [hPa] vv [km] sd [min]
17.06.2019 20:00:00 - - - - - - - -
17.06.2019 19:00:00 24,0 21,0 15 8 WNW - 10 -
17.06.2019 18:00:00 26,0 21,0 13 7 WNW - 10 -
17.06.2019 17:00:00 26,2 20,3 15 8 NW 1014,8 10 60
17.06.2019 16:00:00 26,0 21,0 16 9 NW - 10 -
17.06.2019 15:00:00 26,0 21,0 18 10 WNW - 10 -
17.06.2019 14:00:00 26,4 20,7 21 11 WNW 1015,8 10 60
17.06.2019 13:00:00 26,0 21,0 13 7 NW - 10 -
17.06.2019 12:00:00 25,0 20,0 16 9 W - 10 -
17.06.2019 11:00:00 24,2 20,3 8 4 NW 1016,0 10 60
17.06.2019 10:00:00 23,0 19,0 8 4 W - 10 -
17.06.2019 09:00:00 22,0 19,0 5 3 NW - 10 -
17.06.2019 08:00:00 18,0 17,7 9 5 ESE 1015,7 10 0
17.06.2019 07:00:00 18,0 18,0 5 3 ESE - 10 -
17.06.2019 06:00:00 17,0 17,0 2 1 S - 10 -
17.06.2019 05:00:00 17,0 17,0 4 2 SE 1016,7 10 -
17.06.2019 04:00:00 12,0 12,0 2 1 ESE - 10 -
17.06.2019 03:00:00 14,0 14,0 2 1 ESE - 10 -
17.06.2019 02:00:00 16,0 16,0 2 1 SSW 1015,9 10 -
17.06.2019 01:00:00 16,0 16,0 4 2 S - 10 -
17.06.2019 00:00:00 17,0 17,0 4 2 SE - 10 -
16.06.2019 23:00:00 18,4 18,1 5 3 S 1015,5 10 -
16.06.2019 22:00:00 19,0 18,0 5 3 SW - 10 -
16.06.2019 21:00:00 21,0 19,0 9 5 WNW - 10 -
16.06.2019 20:00:00 22,2 18,6 13 7 W 1015,5 10 60
16.06.2019 19:00:00 23,0 19,0 15 8 W - 10 -
16.06.2019 18:00:00 23,0 19,0 15 8 W - 10 -
16.06.2019 17:00:00 23,8 19,1 15 8 W 1016,0 10 60
16.06.2019 16:00:00 24,0 19,0 15 8 W - 10 -
16.06.2019 15:00:00 24,0 18,0 16 9 W - 10 -
16.06.2019 14:00:00 23,2 17,7 15 8 WSW 1017,0 10 60
16.06.2019 13:00:00 23,0 18,0 16 9 W - 10 -
16.06.2019 12:00:00 23,0 18,0 13 7 W - 10 -
16.06.2019 11:00:00 22,0 17,4 13 7 W 1017,1 10 54
16.06.2019 10:00:00 22,0 17,0 16 9 W - 10 -
16.06.2019 09:00:00 20,0 17,0 9 5 W - 10 -
16.06.2019 08:00:00 18,2 18,0 4 2 SSW 1016,6 10 0
16.06.2019 07:00:00 18,0 17,0 4 2 SSE - 8 -
16.06.2019 06:00:00 17,0 16,0 5 3 SE - 8 -
16.06.2019 05:00:00 16,4 16,2 4 2 SSW 1016,7 8 -
16.06.2019 04:00:00 16,0 16,0 4 2 WSW - 7 -
16.06.2019 03:00:00 16,0 16,0 4 2 WSW - 7 -
16.06.2019 02:00:00 17,2 16,9 4 2 SE 1017,0 6 -
16.06.2019 01:00:00 17,0 17,0 4 2 E - 7 -
16.06.2019 00:00:00 18,0 18,0 5 3 WSW - 10 -
15.06.2019 23:00:00 19,2 18,5 5 3 W 1016,8 10 -
15.06.2019 22:00:00 20,0 19,0 5 3 WSW - 10 -
15.06.2019 21:00:00 20,0 19,0 9 5 W - 10 -
15.06.2019 20:00:00 21,0 19,3 11 6 WNW 1016,5 10 12
15.06.2019 19:00:00 21,0 19,0 15 8 W - 10 -
15.06.2019 18:00:00 22,0 20,0 15 8 WNW - 10 -
15.06.2019 17:00:00 22,0 19,4 11 6 WSW 1016,7 10 30
15.06.2019 16:00:00 22,0 19,0 18 10 W - 10 -
15.06.2019 15:00:00 22,0 19,0 18 10 W - 10 -
15.06.2019 14:00:00 23,0 19,4 21 11 WSW 1017,6 10 24
15.06.2019 13:00:00 23,0 20,0 16 9 W - 10 -
15.06.2019 12:00:00 23,0 19,0 18 10 W - 10 -
15.06.2019 11:00:00 23,0 19,4 18 10 W 1016,9 10 30
15.06.2019 10:00:00 23,0 19,0 15 8 WNW - 10 -
15.06.2019 09:00:00 23,0 19,0 15 8 W - 10 -
15.06.2019 08:00:00 20,6 19,3 13 7 W 1016,3 10 0
15.06.2019 07:00:00 20,0 20,0 9 5 WSW - 8 -
15.06.2019 06:00:00 20,0 19,0 5 3 NW - 8 -
15.06.2019 05:00:00 20,0 19,4 11 6 WNW 1015,2 10 -
15.06.2019 04:00:00 20,0 19,0 11 6 WNW - 10 -
15.06.2019 03:00:00 21,0 20,0 8 4 WNW - 10 -
15.06.2019 02:00:00 21,0 20,2 8 4 NW 1015,3 10 -
15.06.2019 01:00:00 21,0 20,0 9 5 WSW - 10 -
15.06.2019 00:00:00 22,0 20,0 8 4 W - 10 -
14.06.2019 23:00:00 22,6 19,6 9 5 SSE 1014,9 10 -
14.06.2019 22:00:00 23,0 19,0 5 3 SE - 10 -
14.06.2019 21:00:00 24,0 18,0 13 7 E - 10 -
14.06.2019 20:00:00 25,8 18,7 8 4 SSE 1014,4 10 0
14.06.2019 19:00:00 28,0 21,0 18 10 SW - 10 -
14.06.2019 18:00:00 29,0 21,0 13 7 S - 10 -
14.06.2019 17:00:00 29,6 21,8 8 4 S 1014,9 10 30
14.06.2019 16:00:00 29,0 22,0 15 8 SW - 10 -
14.06.2019 15:00:00 30,0 20,0 24 13 SW - 10 -
14.06.2019 14:00:00 32,0 16,7 11 6 E 1015,6 10 60
14.06.2019 13:00:00 32,0 17,0 15 8 ESE - 10 -
14.06.2019 12:00:00 29,0 15,0 22 12 E - 10 -
14.06.2019 11:00:00 28,6 14,1 26 14 ESE 1016,4 10 60
14.06.2019 10:00:00 27,0 16,0 18 10 ESE - 10 -
14.06.2019 09:00:00 24,0 15,0 16 9 ESE - 10 -
14.06.2019 08:00:00 19,4 13,8 15 8 E 1016,1 10 12
14.06.2019 07:00:00 17,0 14,0 11 6 E - 10 -
14.06.2019 06:00:00 16,0 15,0 9 5 ESE - 10 -
14.06.2019 05:00:00 15,2 14,6 4 2 S 1016,3 10 -
14.06.2019 04:00:00 16,0 15,0 8 4 ESE - 10 -
14.06.2019 03:00:00 16,0 14,0 5 3 E - 10 -
14.06.2019 02:00:00 16,0 15,2 5 3 ENE 1016,8 10 -
14.06.2019 01:00:00 17,0 16,0 5 3 SSE - 10 -
14.06.2019 00:00:00 17,0 16,0 8 4 E - 10 -
13.06.2019 23:00:00 17,6 16,3 2 1 E 1016,8 10 -
13.06.2019 22:00:00 18,0 16,0 9 5 SE - 10 -
13.06.2019 21:00:00 22,0 16,0 4 2 W - 10 -
13.06.2019 20:00:00 24,4 12,7 8 4 NW 1016,7 10 60
13.06.2019 19:00:00 25,0 13,0 11 6 WNW - 10 -
13.06.2019 18:00:00 26,0 12,0 15 8 NW - 10 -
13.06.2019 17:00:00 26,4 11,4 15 8 NW 1016,9 10 60
13.06.2019 16:00:00 26,0 12,0 13 7 WNW - 10 -
13.06.2019 15:00:00 26,0 13,0 13 7 NW - 10 -
13.06.2019 14:00:00 25,2 15,0 15 8 WNW 1017,5 10 60
13.06.2019 13:00:00 25,0 13,0 8 4 WNW - 10 -
13.06.2019 12:00:00 24,0 9,0 4 2 E - 10 -
13.06.2019 11:00:00 21,8 11,8 4 2 NE 1018,0 10 -
13.06.2019 10:00:00 21,0 14,0 4 2 WSW - 10 -
13.06.2019 09:00:00 19,0 15,0 9 5 SE - 10 -
13.06.2019 08:00:00 15,0 14,4 8 4 ESE 1016,7 10 48
13.06.2019 07:00:00 13,0 13,0 5 3 ESE - 10 -
13.06.2019 06:00:00 11,0 11,0 9 5 ESE - 10 -
13.06.2019 05:00:00 12,4 12,4 4 2 ESE 1015,7 10 -
13.06.2019 04:00:00 13,0 13,0 8 4 SE - 10 -
13.06.2019 03:00:00 13,0 13,0 8 4 SE - 10 -
13.06.2019 02:00:00 15,4 14,3 4 2 W 1015,7 10 -
13.06.2019 01:00:00 16,0 14,0 4 2 NNW - 10 -
13.06.2019 00:00:00 17,0 15,0 8 4 W - 10 -
12.06.2019 23:00:00 17,4 14,9 13 7 WNW 1014,9 10 -
12.06.2019 22:00:00 18,0 15,0 8 4 WNW - 10 -
12.06.2019 21:00:00 19,0 15,0 13 7 W - 10 -
12.06.2019 20:00:00 21,0 14,9 16 9 W 1013,8 10 60
12.06.2019 19:00:00 22,0 15,0 21 11 WNW - 10 -
12.06.2019 18:00:00 22,0 16,0 22 12 WNW - 10 -
12.06.2019 17:00:00 23,2 14,0 22 12 W 1013,7 10 60
12.06.2019 16:00:00 24,0 16,0 22 12 W - 10 -
12.06.2019 15:00:00 24,0 15,0 24 13 W - 10 -
12.06.2019 14:00:00 23,4 18,3 21 11 W 1012,9 10 36
12.06.2019 13:00:00 23,0 18,0 22 12 W - 10 -
12.06.2019 12:00:00 23,0 19,0 21 11 W - 10 -
12.06.2019 11:00:00 22,6 19,6 15 8 W 1011,8 10 36
12.06.2019 10:00:00 22,0 20,0 13 7 W - 10 -
12.06.2019 09:00:00 21,0 19,0 5 3 SE - 10 -
12.06.2019 08:00:00 19,6 19,3 8 4 ESE 1010,6 10 -
12.06.2019 07:00:00 19,0 18,0 8 4 ESE - 8 -
12.06.2019 06:00:00 18,0 17,0 4 2 SSE - 7 -
12.06.2019 05:00:00 17,2 16,9 4 2 SSE 1010,2 7 -
12.06.2019 04:00:00 18,0 17,0 5 3 ESE - 10 -
12.06.2019 03:00:00 17,0 17,0 5 3 SSE - 8 -
12.06.2019 02:00:00 18,2 17,9 4 2 S 1010,2 7 -
12.06.2019 01:00:00 18,0 18,0 4 2 SE - 8 -
12.06.2019 00:00:00 18,0 18,0 5 3 S - 8 -
11.06.2019 23:00:00 20,0 19,2 4 2 S 1009,8 10 -
11.06.2019 22:00:00 20,0 19,0 2 1 SW - 10 -
11.06.2019 21:00:00 21,0 20,0 5 3 WNW - 10 -
11.06.2019 20:00:00 23,0 20,3 9 5 WNW 1009,2 10 0

tt = temperature
td = dewpoint
ff = wind speed
dd = wind direction
ppp = reduced air pressure
vv = visibility
sd = sunshine duration

Next stations